Weather History for Key West, FL

Change the Weather History Date:

Wednesday, December 5, 2012

  Actual Average Record
Temperature  
Mean Temperature 72 °F 73 °F  
Max Temperature 76 °F 77 °F 86 °F (1994)
Min Temperature 68 °F 69 °F 45 °F (1876)
Degree Days  
Heating Degree Days 0 0  
Month to date heating degree days 0 0  
Since 1 July heating degree days 0 1  
Cooling Degree Days 7 8  
Month to date cooling degree days 41 42  
Year to date cooling degree days 4595 4575  
Growing Degree Days 22 (Base 50)    
Moisture  
Dew Point 66 °F    
Average Humidity 80    
Maximum Humidity 90    
Minimum Humidity 69    
Precipitation  
Precipitation 0.49 in 0.08 in 0.49 in (2012)
Month to date precipitation 0.53 0.41  
Year to date precipitation 46.86 38.02  
Snow  
Snow 0.00 in - - ()
Month to date snowfall 0.0  
Since 1 July snowfall 0.0  
Snow Depth 0.00 in    
Sea Level Pressure  
Sea Level Pressure 30.07 in    
Wind  
Wind Speed 7 mph (NE)    
Max Wind Speed 12 mph    
Max Gust Speed 16 mph    
Visibility 9 miles    
Events Rain    
T = Trace of Precipitation, MM = Missing Value Source: NWS Daily Summary

Daily Weather History Graph

Daily Weather History Graph

Search for Another Location

Airport:

Trip Planner

Search our weather history database for the weather conditions in past years. The results will help you decide how hot, cold, wet, or windy it might be!

Date:

Astronomy

Dec. 05, 2012 Rise Set
Actual Time 6:57 AM EST 5:38 PM EST
Civil Twilight 6:32 AM EST 6:03 PM EST
Nautical Twilight 6:04 AM EST 6:31 PM EST
Astronomical Twilight 5:36 AM EST 6:59 PM EST
Moon 11:55 PM EST (12/5) 11:48 AM EST (12/5)
Length of Visible Light 11h 30m
Length of Day
10h 41m
Waning Gibbous, 60% of the Moon is Illuminated
Dec 5
Waning Gibbous
Dec 6
Last Quarter
Dec 13
New
Dec 20
First Quarter
Dec 28
Full

Hourly Weather History & Observations

Time (EST) Temp. Dew Point Humidity Pressure Visibility Wind Dir Wind Speed Gust Speed Precip Events Conditions
12:53 AM 71.1 °F 66.0 °F 84% 30.13 in 10.0 mi NE 6.9 mph - N/A   Overcast
1:53 AM 72.0 °F 66.0 °F 81% 30.12 in 10.0 mi NE 8.1 mph - N/A   Overcast
2:53 AM 71.1 °F 66.0 °F 84% 30.10 in 10.0 mi NE 8.1 mph - N/A   Overcast
3:53 AM 70.0 °F 66.0 °F 87% 30.09 in 5.0 mi NE 9.2 mph - 0.00 in Rain Rain
4:53 AM 69.1 °F 66.9 °F 93% 30.08 in 7.0 mi NNE 9.2 mph - 0.05 in Rain Rain
5:53 AM 69.1 °F 66.9 °F 93% 30.09 in 5.0 mi NNE 4.6 mph - 0.25 in Rain Light Rain
6:53 AM 69.1 °F 66.9 °F 93% 30.09 in 7.0 mi NE 6.9 mph - 0.12 in Rain Light Rain
7:53 AM 69.1 °F 66.9 °F 93% 30.12 in 6.0 mi NNE 9.2 mph - 0.06 in Rain Light Rain
9:53 AM 71.1 °F 68.0 °F 90% 30.13 in 10.0 mi NE 6.9 mph - 0.00 in   Overcast
10:53 AM 73.0 °F 68.0 °F 84% 30.12 in 10.0 mi NE 6.9 mph - N/A   Overcast
11:53 AM 75.9 °F 66.9 °F 74% 30.10 in 10.0 mi ENE 6.9 mph - N/A   Mostly Cloudy
12:53 PM 75.0 °F 64.0 °F 69% 30.07 in 10.0 mi East 11.5 mph - N/A   Overcast
1:53 PM 73.9 °F 64.0 °F 71% 30.04 in 10.0 mi ENE 6.9 mph - 0.00 in Rain Light Rain
2:53 PM 73.0 °F 64.9 °F 76% 30.03 in 10.0 mi North 3.5 mph - 0.01 in   Overcast
3:53 PM 72.0 °F 68.0 °F 87% 30.02 in 10.0 mi NNE 6.9 mph - 0.00 in   Overcast
4:53 PM 72.0 °F 66.9 °F 84% 30.02 in 10.0 mi NNE 5.8 mph - N/A   Overcast
5:53 PM 72.0 °F 66.9 °F 84% 30.02 in 10.0 mi NE 4.6 mph - N/A   Overcast
6:53 PM 72.0 °F 66.9 °F 84% 30.03 in 10.0 mi NE 4.6 mph - N/A   Overcast
7:53 PM 72.0 °F 66.0 °F 81% 30.03 in 10.0 mi ENE 4.6 mph - N/A   Mostly Cloudy
8:53 PM 72.0 °F 64.9 °F 78% 30.03 in 10.0 mi Variable 5.8 mph - N/A   Overcast
9:53 PM 72.0 °F 64.9 °F 78% 30.02 in 10.0 mi ENE 6.9 mph - N/A   Overcast
10:53 PM 72.0 °F 64.9 °F 78% 30.03 in 10.0 mi ENE 4.6 mph - N/A   Overcast
11:53 PM 72.0 °F 64.9 °F 78% 30.01 in 10.0 mi NE 5.8 mph - N/A   Overcast